| time (UTC) | temp F | wind direction | speed MPH | gust MPH | rain 1hr in | rain 24hr in | rain mn in | humidity % | barometer mb |
| 20260904211558 | 90 | 0 | 0.0 | 0.0 | 0.00 | 0.00 | 0.00 | 52 | 1020.8 |
| 20260904210055 | 90 | 0 | 0.0 | 3.0 | 0.00 | 0.00 | 0.00 | 55 | 1020.6 |
| 20260904204558 | 89 | 32 | 1.0 | 3.0 | 0.00 | 0.00 | 0.00 | 53 | 1020.6 |
| 20260904203102 | 89 | 0 | 0.0 | 4.0 | 0.00 | 0.00 | 0.00 | 57 | 1020.7 |
| 20260904201624 | 89 | 0 | 0.0 | 2.0 | 0.00 | 0.00 | 0.00 | 62 | 1021.0 |
| 20260904200100 | 87 | 275 | 0.0 | 2.0 | 0.00 | 0.00 | 0.00 | 62 | 1021.1 |
| 20260904194605 | 87 | 258 | 1.0 | 4.0 | 0.00 | 0.00 | 0.00 | 58 | 1021.3 |
| 20260904193101 | 87 | 242 | 3.0 | 8.0 | 0.00 | 0.00 | 0.00 | 59 | 1021.7 |
| 20260904191559 | 87 | 255 | 1.0 | 4.0 | 0.00 | 0.00 | 0.00 | 60 | 1021.9 |
| 20260904190059 | 87 | 278 | 1.0 | 5.0 | 0.00 | 0.00 | 0.00 | 61 | 1022.1 |
| 20260904184554 | 86 | 25 | 2.0 | 8.0 | 0.00 | 0.00 | 0.00 | 65 | 1022.1 |
| 20260904183116 | 85 | 279 | 1.0 | 7.0 | 0.00 | 0.00 | 0.00 | 64 | 1022.4 |
| 20260904181557 | 83 | 24 | 2.0 | 4.0 | 0.00 | 0.00 | 0.00 | 69 | 1022.5 |
| 20260904180100 | 83 | 277 | 0.0 | 9.0 | 0.00 | 0.00 | 0.00 | 68 | 1022.6 |
| 20260904174556 | 85 | 162 | 2.0 | 6.0 | 0.00 | 0.00 | 0.00 | 63 | 1022.6 |
| 20260904173103 | 86 | 294 | 2.0 | 5.0 | 0.00 | 0.00 | 0.00 | 68 | 1022.7 |
| 20260904171613 | 86 | 267 | 1.0 | 6.0 | 0.00 | 0.00 | 0.00 | 66 | 1023.0 |
| 20260904170058 | 84 | 146 | 3.0 | 10.0 | 0.00 | 0.00 | 0.00 | 66 | 1023.0 |
| 20260904164631 | 84 | 126 | 6.0 | 13.0 | 0.00 | 0.00 | 0.00 | 68 | 1023.2 |
| 20260904163102 | 84 | 43 | 2.0 | 6.0 | 0.00 | 0.00 | 0.00 | 73 | 1023.2 |
| 20260904161600 | 82 | 342 | 1.0 | 5.0 | 0.00 | 0.00 | 0.00 | 74 | 1023.5 |
| 20260904160055 | 82 | 188 | 0.0 | 5.0 | 0.00 | 0.00 | 0.00 | 76 | 1023.5 |
| 20260904154554 | 81 | 0 | 2.0 | 4.0 | 0.00 | 0.00 | 0.00 | 78 | 1023.6 |
| 20260904153111 | 80 | 211 | 1.0 | 4.0 | 0.00 | 0.00 | 0.00 | 78 | 1023.6 |
| 20260904151558 | 79 | 0 | 1.0 | 4.0 | 0.00 | 0.00 | 0.00 | 79 | 1023.7 |
| 20260904144603 | 76 | 223 | 0.0 | 4.0 | 0.00 | 0.00 | 0.00 | 85 | 1023.6 |
| 20260904143059 | 75 | 223 | 1.0 | 4.0 | 0.00 | 0.00 | 0.00 | 86 | 1023.6 |
| 20260904141557 | 74 | 0 | 0.0 | 3.0 | 0.00 | 0.00 | 0.00 | 89 | 1023.6 |
| 20260904140056 | 71 | 223 | 1.0 | 4.0 | 0.00 | 0.00 | 0.00 | 92 | 1023.7 |
| 20260904134558 | 70 | 0 | 0.0 | 0.0 | 0.00 | 0.00 | 0.00 | 97 | 1023.6 |
| 20260904133100 | 68 | 0 | 0.0 | 0.0 | 0.00 | 0.00 | 0.00 | 97 | 1023.5 |
| 20260904131602 | 68 | 0 | 0.0 | 0.0 | 0.00 | 0.00 | 0.00 | 98 | 1023.4 |
| 20260904130054 | 66 | 0 | 0.0 | 0.0 | 0.00 | 0.00 | 0.00 | 98 | 1023.7 |
| 20260904124604 | 64 | 0 | 0.0 | 0.0 | 0.00 | 0.00 | 0.00 | 98 | 1023.4 |
| 20260904123106 | 63 | 0 | 0.0 | 0.0 | 0.00 | 0.00 | 0.00 | 98 | 1023.5 |
| 20260904121600 | 63 | 0 | 0.0 | 0.0 | 0.00 | 0.00 | 0.00 | 97 | 1023.4 |
| 20260904120100 | 63 | 0 | 0.0 | 0.0 | 0.00 | 0.00 | 0.00 | 97 | 1023.4 |
| 20260904114603 | 63 | 0 | 0.0 | 0.0 | 0.00 | 0.00 | 0.00 | 97 | 1023.4 |
| 20260904113056 | 63 | 0 | 0.0 | 0.0 | 0.00 | 0.00 | 0.00 | 97 | 1023.2 |
| 20260904111600 | 63 | 0 | 0.0 | 0.0 | 0.00 | 0.00 | 0.00 | 97 | 1022.9 |
| 20260904104559 | 63 | 0 | 0.0 | 0.0 | 0.00 | 0.00 | 0.00 | 97 | 1022.8 |
| 20260904103057 | 64 | 0 | 0.0 | 0.0 | 0.00 | 0.00 | 0.00 | 97 | 1022.7 |
| 20260904101610 | 64 | 0 | 0.0 | 0.0 | 0.00 | 0.00 | 0.00 | 97 | 1022.6 |
| 20260904100107 | 64 | 0 | 0.0 | 0.0 | 0.00 | 0.00 | 0.00 | 97 | 1022.5 |
| 20260904094607 | 65 | 0 | 0.0 | 0.0 | 0.00 | 0.00 | 0.00 | 97 | 1022.5 |
| 20260904093113 | 65 | 0 | 0.0 | 0.0 | 0.00 | 0.00 | 0.00 | 97 | 1022.5 |
| 20260904091612 | 65 | 0 | 0.0 | 0.0 | 0.00 | 0.00 | 0.00 | 97 | 1022.5 |
| 20260904090059 | 65 | 0 | 0.0 | 0.0 | 0.00 | 0.00 | 0.00 | 97 | 1022.5 |
| 20260904084604 | 65 | 0 | 0.0 | 0.0 | 0.00 | 0.00 | 0.00 | 97 | 1022.5 |
| 20260904083106 | 65 | 0 | 0.0 | 0.0 | 0.00 | 0.00 | 0.00 | 97 | 1022.5 |
| 20260904081602 | 65 | 0 | 0.0 | 0.0 | 0.00 | 0.00 | 0.00 | 97 | 1022.4 |
| 20260904080105 | 65 | 0 | 0.0 | 0.0 | 0.00 | 0.00 | 0.00 | 96 | 1022.3 |
| 20260904074602 | 66 | 0 | 0.0 | 0.0 | 0.00 | 0.00 | 0.00 | 97 | 1022.4 |
| 20260904073115 | 65 | 0 | 0.0 | 0.0 | 0.00 | 0.00 | 0.00 | 96 | 1022.2 |
| 20260904071558 | 66 | 0 | 0.0 | 0.0 | 0.00 | 0.00 | 0.00 | 96 | 1022.3 |
| 20260904070058 | 66 | 0 | 0.0 | 0.0 | 0.00 | 0.00 | 0.00 | 96 | 1022.3 |
| 20260904064608 | 66 | 0 | 0.0 | 0.0 | 0.00 | 0.00 | 0.00 | 96 | 1022.5 |
| 20260904063107 | 66 | 0 | 0.0 | 0.0 | 0.00 | 0.00 | 0.00 | 95 | 1022.7 |
| 20260904061557 | 67 | 0 | 0.0 | 0.0 | 0.00 | 0.00 | 0.00 | 95 | 1022.9 |
| 20260904060114 | 67 | 0 | 0.0 | 0.0 | 0.00 | 0.00 | 0.00 | 95 | 1023.2 |
| 20260904054612 | 67 | 0 | 0.0 | 0.0 | 0.00 | 0.00 | 0.00 | 94 | 1023.1 |
| 20260904053102 | 67 | 0 | 0.0 | 0.0 | 0.00 | 0.00 | 0.00 | 94 | 1023.4 |
| 20260904051558 | 67 | 0 | 0.0 | 0.0 | 0.00 | 0.00 | 0.00 | 94 | 1023.4 |
| 20260904050056 | 68 | 0 | 0.0 | 0.0 | 0.00 | 0.00 | 0.00 | 93 | 1023.7 |
| 20260904044605 | 68 | 0 | 0.0 | 0.0 | 0.00 | 0.00 | 0.00 | 92 | 1023.8 |
| 20260904043105 | 68 | 99 | 0.0 | 2.0 | 0.00 | 0.00 | 0.00 | 93 | 1023.6 |
| 20260904041605 | 68 | 99 | 0.0 | 1.0 | 0.00 | 0.00 | 0.00 | 92 | 1023.9 |
| 20260904040110 | 69 | 0 | 0.0 | 1.0 | 0.00 | 0.00 | 0.00 | 92 | 1023.9 |
| 20260904034604 | 69 | 0 | 0.0 | 1.0 | 0.00 | 0.00 | 0.00 | 92 | 1023.9 |
| 20260904033059 | 69 | 0 | 0.0 | 1.0 | 0.00 | 0.00 | 0.00 | 91 | 1023.9 |
| 20260904031604 | 69 | 0 | 0.0 | 0.0 | 0.00 | 0.00 | 0.00 | 90 | 1023.9 |
| 20260904030055 | 70 | 0 | 0.0 | 0.0 | 0.00 | 0.00 | 0.00 | 90 | 1024.1 |
| 20260904024602 | 70 | 0 | 0.0 | 0.0 | 0.00 | 0.00 | 0.00 | 89 | 1024.1 |
| 20260904023104 | 70 | 0 | 0.0 | 2.0 | 0.00 | 0.00 | 0.00 | 88 | 1024.1 |
| 20260904021558 | 70 | 0 | 0.0 | 2.0 | 0.00 | 0.00 | 0.00 | 87 | 1024.2 |
| 20260904020101 | 71 | 99 | 0.0 | 2.0 | 0.00 | 0.00 | 0.00 | 87 | 1024.0 |
| 20260904014616 | 71 | 0 | 0.0 | 1.0 | 0.00 | 0.00 | 0.00 | 86 | 1023.7 |
| 20260904013119 | 72 | 0 | 0.0 | 2.0 | 0.00 | 0.00 | 0.00 | 85 | 1023.5 |
| 20260904011559 | 72 | 0 | 0.0 | 1.0 | 0.00 | 0.00 | 0.00 | 84 | 1023.4 |
| 20260904010117 | 72 | 0 | 0.0 | 2.0 | 0.00 | 0.00 | 0.00 | 83 | 1023.1 |
| 20260904004553 | 73 | 99 | 0.0 | 2.0 | 0.00 | 0.00 | 0.00 | 82 | 1022.9 |
| 20260904003125 | 73 | 99 | 0.0 | 2.0 | 0.00 | 0.00 | 0.00 | 81 | 1022.5 |
| 20260904001558 | 74 | 99 | 1.0 | 3.0 | 0.00 | 0.00 | 0.00 | 81 | 1022.6 |
| 20260904000055 | 76 | 0 | 0.0 | 2.0 | 0.00 | 0.00 | 0.00 | 80 | 1022.3 |
| 20260903234603 | 77 | 0 | 0.0 | 2.0 | 0.00 | 0.00 | 0.00 | 78 | 1022.1 |
| 20260903233103 | 79 | 0 | 0.0 | 0.0 | 0.00 | 0.00 | 0.00 | 77 | 1022.1 |
| 20260903231556 | 81 | 0 | 0.0 | 3.0 | 0.00 | 0.00 | 0.00 | 72 | 1022.0 |
| 20260903224601 | 83 | 0 | 0.0 | 4.0 | 0.00 | 0.00 | 0.00 | 65 | 1021.9 |
| 20260903223108 | 84 | 64 | 1.0 | 4.0 | 0.00 | 0.00 | 0.00 | 64 | 1022.0 |
| 20260903221555 | 85 | 0 | 0.0 | 6.0 | 0.00 | 0.00 | 0.00 | 63 | 1022.1 |
| 20260903220055 | 86 | 146 | 2.0 | 5.0 | 0.00 | 0.00 | 0.00 | 62 | 1022.0 |
| 20260903214603 | 86 | 158 | 2.0 | 6.0 | 0.00 | 0.00 | 0.00 | 60 | 1022.0 |
| 20260903213104 | 86 | 136 | 1.0 | 8.0 | 0.00 | 0.00 | 0.00 | 61 | 1022.0 |